Voltar ao catálogo

CZ-6A DEB

AtivoPO
NORAD 64645·DEBRIS·🇨🇳 China

Lançado Aug 6, 2024 de Taiyuan Satellite Launch Center

Loading…

Próximas Passagens (próximas 24 horas)

TLE

AtualizadoSource: Space-Track

Época: Sep 14, 2026, 06:26 UTC

1 64645U 24140AEK 26257.26860668  .00001655  00000-0  85513-3 0  9992
2 64645  88.3266 205.8729 0088910 289.8360  69.3258 14.12557253 99720

Acompanhe CZ-6A DEB em tempo real com AllMySat

Download on the App Store